Zurück zum Katalog

FENGYUN 1C DEB

AktivSSO
NORAD 41833·DEBRIS·🇨🇳 China

Gestartet May 10, 1999 von Taiyuan Satellite Launch Center

Loading…

Nächste Überflüge (nächste 24 Stunden)

TLE

AktuellSource: Space-Track

Epoche: Sep 13, 2026, 03:22 UTC

1 41833U 99025EYL 26256.14032171  .00002165  00000-0  88361-3 0  9997
2 41833  98.7322 330.3329 0054137 145.5581 214.9127 14.27602440512772

Verfolge FENGYUN 1C DEB in Echtzeit mit AllMySat

Download on the App Store